• în România
  • Lista ţărilor
  • Pe 7 zile
  • Temperatura apei
  • Hartă satelitară
  • Meteo pe hartă
  • Widget-uri
  • user-avatar
    Intrare

    Meteo pe oră la Ovcharovka

    Astăzi, 14 Noiembrie, Miercuri

    Timp Temperatura Precipitaţii Vânt Presiune Umiditate
    00:00 -7°C° 0 mm 5 m/s 758 mmHg 29%
    01:00 -7°C° 0 mm 5 m/s 757 mmHg 30%
    02:00 -8°C° 0 mm 5 m/s 757 mmHg 30%
    03:00 -8°C° 0 mm 5 m/s 756 mmHg 30%
    04:00 -8°C° 0 mm 5 m/s 756 mmHg 31%
    05:00 -8°C° 0 mm 5 m/s 755 mmHg 31%
    06:00 -8°C° 0 mm 5 m/s 755 mmHg 32%
    07:00 -8°C° 0 mm 5 m/s 755 mmHg 33%
    08:00 -8°C° 0 mm 5 m/s 754 mmHg 34%
    09:00 -8°C° 0 mm 5 m/s 754 mmHg 35%
    10:00 -8°C° 0 mm 6 m/s 754 mmHg 38%
    11:00 -6°C° 0 mm 6 m/s 753 mmHg 40%
    12:00 -5°C° 0 mm 6 m/s 753 mmHg 42%
    13:00 -5°C° 0 mm 6 m/s 753 mmHg 45%
    14:00 -4°C° 0 mm 6 m/s 753 mmHg 48%
    15:00 -4°C° 0 mm 5 m/s 752 mmHg 51%
    16:00 -4°C° 0 mm 5 m/s 752 mmHg 53%
    17:00 -4°C° 0 mm 5 m/s 752 mmHg 55%
    18:00 -4°C° 0 mm 5 m/s 752 mmHg 57%
    19:00 -4°C° 0 mm 5 m/s 753 mmHg 56%
    20:00 -4°C° 0 mm 5 m/s 753 mmHg 54%
    21:00 -4°C° 0 mm 5 m/s 753 mmHg 53%
    22:00 -4°C° 0 mm 5 m/s 753 mmHg 55%
    23:00 -5°C° 0 mm 5 m/s 753 mmHg 56%

    Mâine, 15 Noiembrie, Joi

    Timp Temperatura Precipitaţii Vânt Presiune Umiditate
    00:00 -4°C° 0 mm 4 m/s 753 mmHg 57%
    01:00 -4°C° 0 mm 4 m/s 753 mmHg 59%
    02:00 -4°C° 0 mm 4 m/s 754 mmHg 61%
    03:00 -4°C° 0 mm 3 m/s 754 mmHg 64%
    04:00 -4°C° 0 mm 3 m/s 754 mmHg 65%
    05:00 -4°C° 0 mm 3 m/s 754 mmHg 67%
    06:00 -5°C° 0 mm 3 m/s 754 mmHg 69%
    07:00 -5°C° 0 mm 3 m/s 755 mmHg 70%
    08:00 -4°C° 0 mm 3 m/s 755 mmHg 70%
    09:00 -4°C° 0 mm 3 m/s 756 mmHg 71%
    10:00 -4°C° 0 mm 3 m/s 756 mmHg 68%
    11:00 -2°C° 0 mm 3 m/s 756 mmHg 65%
    12:00 -1°C° 0 mm 3 m/s 756 mmHg 62%
    13:00 -1°C° 0 mm 3 m/s 757 mmHg 61%
    14:00 -1°C° 0 mm 2 m/s 757 mmHg 60%
    15:00 -1°C° 0 mm 2 m/s 757 mmHg 59%
    16:00 -2°C° 0 mm 2 m/s 757 mmHg 60%
    17:00 -2°C° 0 mm 2 m/s 758 mmHg 61%
    18:00 -3°C° 0 mm 2 m/s 758 mmHg 62%
    19:00 -3°C° 0 mm 2 m/s 758 mmHg 60%
    20:00 -3°C° 0 mm 2 m/s 758 mmHg 58%
    21:00 -3°C° 0 mm 2 m/s 759 mmHg 56%
    22:00 -3°C° 0 mm 2 m/s 759 mmHg 53%
    23:00 -3°C° 0 mm 2 m/s 759 mmHg 51%

    Poimâine, 16 Noiembrie, Vineri

    Timp Temperatura Precipitaţii Vânt Presiune Umiditate
    00:00 -1°C° 0 mm 1 m/s 759 mmHg 49%
    01:00 -2°C° 0 mm 1 m/s 760 mmHg 46%
    02:00 -2°C° 0 mm 1 m/s 760 mmHg 44%
    03:00 -2°C° 0 mm 1 m/s 760 mmHg 42%
    04:00 -2°C° 0 mm 1 m/s 760 mmHg 40%
    05:00 -2°C° 0 mm 1 m/s 760 mmHg 38%
    06:00 -2°C° 0 mm 1 m/s 761 mmHg 37%
    07:00 -2°C° 0 mm 1 m/s 761 mmHg 35%
    08:00 -2°C° 0 mm 1 m/s 761 mmHg 34%
    09:00 -2°C° 0 mm 1 m/s 761 mmHg 33%
    10:00 -1°C° 0 mm 1 m/s 761 mmHg 30%
    11:00 0°C° 0 mm 1 m/s 761 mmHg 27%
    12:00 -2°C° 0 mm 2 m/s 762 mmHg 24%
    13:00 +1°C° 0 mm 1 m/s 761 mmHg 25%
    14:00 +1°C° 0 mm 1 m/s 761 mmHg 25%
    15:00 +1°C° 0 mm 1 m/s 761 mmHg 26%
    16:00 0°C° 0 mm 1 m/s 761 mmHg 27%
    17:00 -1°C° 0 mm 1 m/s 761 mmHg 28%
    18:00 -1°C° 0 mm 1 m/s 761 mmHg 29%
    19:00 -1°C° 0 mm 1 m/s 761 mmHg 29%
    20:00 -1°C° 0 mm 1 m/s 761 mmHg 29%
    21:00 -2°C° 0 mm 1 m/s 761 mmHg 29%
    22:00 -2°C° 0 mm 1 m/s 761 mmHg 29%
    23:00 -3°C° 0 mm 0 m/s 761 mmHg 29%

    17 Noiembrie, Sâmbătă

    Timp Temperatura Precipitaţii Vânt Presiune Umiditate
    00:00 -3°C° 0 mm 0 m/s 760 mmHg 29%
    01:00 -3°C° 0 mm 0 m/s 760 mmHg 29%
    02:00 -3°C° 0 mm 0 m/s 760 mmHg 29%
    03:00 -3°C° 0 mm 0 m/s 760 mmHg 29%
    04:00 -2°C° 0 mm 1 m/s 760 mmHg 30%
    05:00 -2°C° 0 mm 1 m/s 759 mmHg 30%
    06:00 -2°C° 0 mm 1 m/s 759 mmHg 31%
    07:00 -2°C° 0 mm 1 m/s 759 mmHg 31%
    08:00 -2°C° 0 mm 1 m/s 759 mmHg 31%
    09:00 -2°C° 0 mm 1 m/s 758 mmHg 32%
    10:00 -3°C° 0 mm 2 m/s 758 mmHg 31%
    11:00 -2°C° 0 mm 2 m/s 757 mmHg 30%
    12:00 -1°C° 0 mm 2 m/s 757 mmHg 29%
    13:00 -1°C° 0 mm 2 m/s 756 mmHg 31%
    14:00 -1°C° 0 mm 2 m/s 756 mmHg 32%
    15:00 -1°C° 0 mm 3 m/s 755 mmHg 34%
    16:00 -1°C° 0 mm 3 m/s 754 mmHg 36%
    17:00 -2°C° 0 mm 3 m/s 754 mmHg 39%
    18:00 -2°C° 0 mm 3 m/s 753 mmHg 41%
    19:00 -3°C° 0 mm 4 m/s 752 mmHg 44%
    20:00 -3°C° 0 mm 4 m/s 752 mmHg 48%
    21:00 -3°C° 0 mm 4 m/s 751 mmHg 51%
    22:00 -3°C° 0.1 mm 4 m/s 750 mmHg 57%
    23:00 -3°C° 0.1 mm 4 m/s 749 mmHg 63%

    18 Noiembrie, Duminică

    Timp Temperatura Precipitaţii Vânt Presiune Umiditate
    00:00 -3°C° 0.1 mm 4 m/s 749 mmHg 69%
    01:00 -3°C° 0.2 mm 4 m/s 748 mmHg 74%
    02:00 -4°C° 0.2 mm 5 m/s 747 mmHg 80%
    03:00 -4°C° 0.2 mm 5 m/s 746 mmHg 85%
    04:00 -3°C° 0.5 mm 4 m/s 745 mmHg 88%
    05:00 -3°C° 0.5 mm 4 m/s 745 mmHg 91%
    06:00 -3°C° 0.5 mm 4 m/s 744 mmHg 94%
    07:00 -3°C° 0.7 mm 4 m/s 744 mmHg 94%
    08:00 -3°C° 0.7 mm 4 m/s 743 mmHg 95%
    09:00 -2°C° 0.7 mm 3 m/s 743 mmHg 95%
    10:00 -2°C° 0.3 mm 3 m/s 743 mmHg 95%
    11:00 -1°C° 0.3 mm 2 m/s 743 mmHg 95%
    12:00 -1°C° 0.3 mm 2 m/s 742 mmHg 95%
    13:00 -1°C° 0.2 mm 2 m/s 742 mmHg 96%
    14:00 -1°C° 0.2 mm 2 m/s 743 mmHg 96%
    15:00 -1°C° 0.2 mm 2 m/s 743 mmHg 96%
    16:00 -1°C° 0.2 mm 2 m/s 743 mmHg 96%
    17:00 -2°C° 0.2 mm 2 m/s 743 mmHg 96%
    18:00 -2°C° 0.2 mm 2 m/s 743 mmHg 96%
    19:00 -2°C° 0.1 mm 2 m/s 743 mmHg 96%
    20:00 -2°C° 0.1 mm 2 m/s 744 mmHg 96%
    21:00 -3°C° 0.1 mm 2 m/s 744 mmHg 95%
    22:00 -4°C° 0.1 mm 3 m/s 745 mmHg 94%
    23:00 -4°C° 0.1 mm 3 m/s 745 mmHg 92%

    19 Noiembrie, Luni

    Timp Temperatura Precipitaţii Vânt Presiune Umiditate
    00:00 -4°C° 0.1 mm 3 m/s 746 mmHg 90%
    01:00 -5°C° 0 mm 3 m/s 746 mmHg 87%
    02:00 -5°C° 0 mm 3 m/s 747 mmHg 83%
    03:00 -5°C° 0 mm 3 m/s 748 mmHg 79%
    04:00 -6°C° 0 mm 3 m/s 748 mmHg 78%
    05:00 -7°C° 0 mm 3 m/s 749 mmHg 76%
    06:00 -7°C° 0 mm 3 m/s 750 mmHg 74%
    07:00 -7°C° 0 mm 3 m/s 751 mmHg 74%
    08:00 -7°C° 0 mm 3 m/s 751 mmHg 74%
    09:00 -7°C° 0 mm 3 m/s 752 mmHg 74%
    10:00 -6°C° 0 mm 3 m/s 753 mmHg 72%
    11:00 -5°C° 0 mm 3 m/s 753 mmHg 71%
    12:00 -4°C° 0 mm 3 m/s 754 mmHg 69%
    13:00 -4°C° 0 mm 3 m/s 754 mmHg 71%
    14:00 -4°C° 0 mm 3 m/s 754 mmHg 73%
    15:00 -4°C° 0 mm 3 m/s 755 mmHg 75%
    16:00 -5°C° 0 mm 3 m/s 755 mmHg 76%
    17:00 -6°C° 0 mm 3 m/s 755 mmHg 76%
    18:00 -6°C° 0 mm 3 m/s 755 mmHg 76%
    19:00 -6°C° 0 mm 3 m/s 756 mmHg 76%
    20:00 -7°C° 0 mm 3 m/s 756 mmHg 76%
    21:00 -7°C° 0 mm 3 m/s 756 mmHg 75%
    22:00 -7°C° 0 mm 3 m/s 757 mmHg 74%
    23:00 -7°C° 0 mm 3 m/s 757 mmHg 74%
    Arată mai mult